Location: Raleigh
(35.7720°N, 78.6390°W)
Time: 05:30:35
(UTC-04:00)

Amateur Radio Satellites - All Passes

Search period start: 19 August 2017 05:00
Search period end: 20 August 2017 05:00
Location: Raleigh, 35.7720°N, 78.6390°W

Satellite Date Start Highest point End Downlink Frequencies (MHz)
Time Altitude Azimuth
STARS 19 Aug 05:30:23 05:34:24 35° 72° (ENE) 05:38:25 437.465
BEESAT 3 19 Aug 05:44:48 05:48:37 48° 115° (ESE) 05:52:31 437.485
YUBILEINY 19 Aug 05:52:03 05:58:07 22° 279° (W) 06:04:12 435.215
AO-85 19 Aug 05:54:04 05:57:43 36° 114° (ESE) 06:01:19 145.980
BEESAT 2 19 Aug 05:54:50 05:57:32 18° 110° (ESE) 06:00:17 435.950
ITAMSAT 1 19 Aug 05:59:23 06:03:17 22° 294° (WNW) 06:07:10 435.822/435.867
CUBESAT XI-V 19 Aug 06:11:19 06:13:58 15° 268° (W) 06:16:37 437.345
XW-2C 19 Aug 06:15:01 06:15:49 10° 92° (E) 06:16:36 145.795 - 145.815
CUTE-I 19 Aug 06:15:12 06:17:06 12° 91° (E) 06:19:01 437.470
KKS-1 19 Aug 06:22:44 06:26:13 22° 264° (W) 06:29:43 437.445
DOVE 4 19 Aug 06:24:34 06:29:03 54° 100° (E) 06:33:14 437.250
XW-2F 19 Aug 06:27:37 06:29:52 15° 94° (E) 06:32:06 145.980 - 146.000
AO-7 19 Aug 06:52:24 06:58:01 20° 305° (NW) 07:03:37 .
HO-68 19 Aug 06:54:06 06:55:42 11° 89° (E) 06:57:17 435.675
KAITUO 1B 19 Aug 06:55:33 06:58:49 27° 97° (E) 07:02:03 145.475/437.950
STARS 19 Aug 07:07:52 07:10:48 17° 265° (W) 07:13:43 437.465
LilacSat-2 19 Aug 07:09:33 07:13:23 63° 101° (E) 07:17:14 437.200
XW-2D 19 Aug 07:16:25 07:20:15 76° 100° (E) 07:24:05 145.860 - 145.880
BEESAT 3 19 Aug 07:24:12 07:26:28 14° 312° (NW) 07:28:44 437.485
PCSat 19 Aug 07:27:06 07:28:31 11° 44° (NE) 07:29:55 145.827
XW-2B 19 Aug 07:27:24 07:31:14 80° 282° (WNW) 07:35:04 145.730 - 145.750
STRAND 1 19 Aug 07:28:42 07:33:34 46° 72° (ENE) 07:38:26 437.568
NUDT-PHONESAT 19 Aug 07:31:05 07:34:50 81° 102° (ESE) 07:38:35 437.300
BEESAT 2 19 Aug 07:31:25 07:35:01 32° 305° (NW) 07:38:41 435.950
CUTE 1.7 + AOD 2 19 Aug 07:35:19 07:38:21 19° 94° (E) 07:41:22 437.475
AO-85 19 Aug 07:35:39 07:38:12 16° 310° (NW) 07:40:44 145.980
XW-2C 19 Aug 07:46:32 07:50:10 42° 286° (WNW) 07:53:49 145.795 - 145.815
CUTE-I 19 Aug 07:52:18 07:57:36 70° 286° (WNW) 08:02:51 437.470
XW-2F 19 Aug 08:00:39 08:04:01 30° 287° (WNW) 08:07:22 145.980 - 146.000
DOVE 4 19 Aug 08:04:22 08:06:07 12° 296° (WNW) 08:07:51 437.250
SEEDS 19 Aug 08:26:15 08:30:21 45° 99° (E) 08:34:25 437.485
KAITUO 1B 19 Aug 08:30:05 08:32:34 17° 291° (WNW) 08:35:04 145.475/437.950
AO-73 19 Aug 08:31:17 08:31:32 10° 92° (E) 08:31:48 145.935
HO-68 19 Aug 08:37:06 08:44:18 81° 105° (ESE) 08:51:28 435.675
FO-29 19 Aug 08:56:11 09:02:55 35° 68° (ENE) 09:09:10 435.910
NO-84 19 Aug 08:56:28 08:58:18 14° 36° (NE) 09:00:13 435.350 FM
UWE-3 19 Aug 08:57:10 09:01:17 48° 100° (E) 09:05:29 435.000/436.395/437.385
SO-50 19 Aug 08:57:18 09:01:42 46° 57° (ENE) 09:06:08 436.795
CUBEBUG 2 19 Aug 09:00:09 09:04:21 84° 284° (WNW) 09:08:39 437.445
XW-2A 19 Aug 09:04:36 09:07:56 57° 284° (WNW) 09:11:17 145.665 - 145.685
Tancredo 1 19 Aug 09:05:58 09:07:44 15° 129° (SE) 09:09:32 437.200
PCSat 19 Aug 09:07:23 09:12:49 75° 62° (ENE) 09:18:13 145.827
STRAND 1 19 Aug 09:09:30 09:12:55 18° 266° (W) 09:16:19 437.568
CUTE 1.7 + AOD 2 19 Aug 09:10:23 09:14:11 31° 288° (WNW) 09:17:57 437.475
Oscar 11 19 Aug 09:15:47 09:19:28 26° 96° (E) 09:23:08 .
AAUSAT CUBESAT 2 19 Aug 09:17:45 09:21:57 84° 102° (ESE) 09:26:06 437.432
O/OREOS (USA 219) 19 Aug 09:24:35 09:27:22 16° 100° (E) 09:30:09 437.305
UNISAT 6 19 Aug 09:26:36 09:29:24 17° 68° (ENE) 09:32:13 437.425
ZACube-1 19 Aug 09:41:20 09:45:38 87° 107° (ESE) 09:50:00 437.345
nSIGHT-1 19 Aug 09:52:08 09:53:45 13° 127° (SE) 09:55:24 .
TIGRISAT 19 Aug 10:00:53 10:04:55 38° 73° (ENE) 10:08:54 435.000
SEEDS 19 Aug 10:03:33 10:05:35 13° 294° (WNW) 10:07:38 437.485
AO-73 19 Aug 10:03:50 10:08:02 57° 284° (WNW) 10:12:18 145.935
PRISM 19 Aug 10:06:54 10:10:38 33° 72° (ENE) 10:14:24 437.425
RS-15 19 Aug 10:09:09 10:17:24 22° 99° (E) 10:25:42 29.354- 29.394
EO-88 19 Aug 10:18:14 10:20:33 16° 94° (E) 10:22:51 145.990 - 145.960
HO-68 19 Aug 10:26:43 10:31:09 18° 302° (WNW) 10:35:36 435.675
NO-84 19 Aug 10:32:44 10:35:50 47° 230° (SW) 10:39:13 435.350 FM
UWE-3 19 Aug 10:35:28 10:37:19 13° 293° (WNW) 10:39:10 435.000/436.395/437.385
SO-50 19 Aug 10:38:58 10:41:46 16° 251° (WSW) 10:44:34 436.795
Tancredo 1 19 Aug 10:40:03 10:42:44 33° 323° (NW) 10:45:26 437.200
FO-29 19 Aug 10:40:24 10:47:41 44° 261° (W) 10:54:30 435.910
DELFI C3 19 Aug 10:41:16 10:45:13 61° 101° (E) 10:49:07 145.870
Oscar 11 19 Aug 10:52:01 10:55:26 23° 290° (WNW) 10:58:51 .
Max Valier Satellite 19 Aug 10:52:20 10:56:01 64° 101° (ESE) 10:59:41 145.860
PCSat 19 Aug 10:53:35 10:55:29 12° 258° (WSW) 10:57:24 145.827
UNISAT 6 19 Aug 11:01:48 11:05:50 35° 262° (W) 11:09:49 437.425
O/OREOS (USA 219) 19 Aug 11:02:16 11:06:25 37° 295° (WNW) 11:10:35 437.305
M-CUBED/EXP-1 PRIME 19 Aug 11:13:19 11:17:26 40° 67° (ENE) 11:21:45 437.505
ISS 19 Aug 11:15:41 11:18:57 68° 319° (NW) 11:22:13 437.550
DUCHIFAT 1 19 Aug 11:17:35 11:17:47 10° 65° (ENE) 11:17:58 145.980
nSIGHT-1 19 Aug 11:26:39 11:29:49 47° 322° (NW) 11:33:00 .
AIST 2D 19 Aug 11:30:02 11:33:20 43° 75° (ENE) 11:36:40 435.315
JUGNU 19 Aug 11:31:35 11:33:47 12° 168° (SSE) 11:35:59 437.505
ESTCUBE 1 19 Aug 11:36:07 11:38:16 13° 92° (E) 11:40:24 437.505/2401.250
TIGRISAT 19 Aug 11:39:07 11:41:42 15° 266° (W) 11:44:15 435.000
PRISM 19 Aug 11:43:19 11:45:57 16° 266° (W) 11:48:37 437.425
EO-88 19 Aug 11:51:06 11:54:11 26° 288° (WNW) 11:57:15 145.990 - 145.960
LO-87 19 Aug 11:53:35 11:56:45 30° 98° (E) 11:59:53 145.935 - 145.965
NANOSAT C BR1 19 Aug 11:57:32 12:01:22 35° 72° (ENE) 12:05:11 145.865
POLYITAN 1 19 Aug 12:00:14 12:04:13 43° 73° (ENE) 12:08:12 437.675
QB50P2 19 Aug 12:15:00 12:19:12 75° 76° (ENE) 12:23:24 145.880/145.840
RS-15 19 Aug 12:16:01 12:28:13 89° 297° (WNW) 12:40:40 29.354- 29.394
EO-79 19 Aug 12:16:24 12:20:34 70° 77° (ENE) 12:24:46 145.935-145.965
Oscar 19 19 Aug 12:42:01 12:44:42 14° 63° (ENE) 12:47:24 437.125/150
DUCHIFAT 1 19 Aug 12:48:46 12:52:53 59° 259° (W) 12:57:01 145.980
M-CUBED/EXP-1 PRIME 19 Aug 12:48:59 12:51:57 18° 263° (W) 12:55:01 437.505
ISS 19 Aug 12:54:50 12:55:56 11° 337° (NNW) 12:57:03 437.550
BUGSAT 1 19 Aug 12:56:33 13:00:24 39° 73° (ENE) 13:04:12 437.445
ESTCUBE 1 19 Aug 13:10:54 13:15:17 49° 287° (WNW) 13:19:39 437.505/2401.250
JUGNU 19 Aug 13:18:27 13:22:01 16° 178° (S) 13:25:33 437.505
VELOX 1 19 Aug 13:25:38 13:29:51 42° 99° (E) 13:34:00 145.980
LO-87 19 Aug 13:28:15 13:29:51 13° 292° (WNW) 13:31:27 145.935 - 145.965
NANOSAT C BR1 19 Aug 13:34:39 13:37:09 15° 266° (W) 13:39:39 145.865
DX 1 19 Aug 13:34:48 13:37:00 14° 93° (E) 13:39:11 434.975-435.025
POLYITAN 1 19 Aug 13:38:19 13:40:10 13° 267° (W) 13:42:02 437.675
Gurwin Techsat 1B 19 Aug 13:38:28 13:43:12 34° 70° (ENE) 13:47:57 435.225
SPROUT 19 Aug 13:47:05 13:51:20 78° 283° (WNW) 13:55:33 437.525
AO-7 19 Aug 14:04:51 14:09:59 18° 54° (NE) 14:15:07 .
BEESAT 3 19 Aug 14:05:30 14:07:26 13° 47° (NE) 14:09:21 437.485
Oscar 19 19 Aug 14:18:22 14:23:26 62° 259° (WSW) 14:28:34 437.125/150
AO-85 19 Aug 14:27:39 14:30:34 17° 50° (NE) 14:33:35 145.980
50 SAT 19 Aug 14:32:21 14:35:42 66° 284° (WNW) 14:39:01 437.505
RS-15 19 Aug 14:32:25 14:42:35 29° 323° (NW) 14:52:49 29.354- 29.394
BUGSAT 1 19 Aug 14:33:53 14:35:52 13° 267° (W) 14:37:51 437.445
UKube-1 19 Aug 14:51:03 14:55:21 72° 101° (E) 14:59:38 .
YUBILEINY 19 Aug 14:59:35 15:03:37 14° 78° (ENE) 15:07:36 435.215
VELOX 1 19 Aug 15:03:20 15:05:54 15° 294° (WNW) 15:08:25 145.980
JUGNU 19 Aug 15:07:17 15:10:14 14° 189° (S) 15:13:11 437.505
DX 1 19 Aug 15:09:14 15:13:21 43° 287° (WNW) 15:17:27 434.975-435.025
SRMSAT 19 Aug 15:14:54 15:18:08 15° 173° (S) 15:21:21 437.500
ITUPSAT 1 19 Aug 15:15:09 15:16:55 12° 92° (E) 15:18:41 437.325
Gurwin Techsat 1B 19 Aug 15:18:45 15:23:07 26° 264° (W) 15:27:31 435.225
ITAMSAT 1 19 Aug 15:34:17 15:39:15 46° 71° (ENE) 15:44:12 435.822/435.867
BEESAT 3 19 Aug 15:41:27 15:45:19 53° 244° (WSW) 15:49:06 437.485
BEESAT 2 19 Aug 15:51:08 15:55:08 55° 59° (ENE) 15:59:02 435.950
AO-7 19 Aug 15:53:11 16:01:34 87° 72° (ENE) 16:09:59 .
AO-85 19 Aug 16:06:53 16:11:07 48° 244° (WSW) 16:15:41 145.980
MOZHAYETS 4 19 Aug 16:15:44 16:20:14 50° 100° (E) 16:24:43
BEESAT 19 Aug 16:17:07 16:21:50 61° 101° (ESE) 16:26:32 436.000
CUBESAT XI-V 19 Aug 16:32:47 16:35:19 14° 92° (E) 16:37:49 437.345
YUBILEINY 19 Aug 16:50:11 16:59:00 86° 95° (E) 17:07:49 435.215
ITUPSAT 1 19 Aug 16:50:22 16:55:03 59° 286° (WNW) 16:59:45 437.325
RS-15 19 Aug 16:55:16 17:01:20 14° 358° (N) 17:07:20 29.354- 29.394
SRMSAT 19 Aug 17:03:00 17:06:31 16° 183° (S) 17:10:02 437.500
Tancredo 1 19 Aug 17:04:47 17:07:38 54° 40° (NE) 17:10:28 437.200
ITAMSAT 1 19 Aug 17:15:21 17:18:52 18° 266° (W) 17:22:24 435.822/435.867
DOVE 4 19 Aug 17:25:49 17:30:48 43° 73° (ENE) 17:35:44 437.250
BEESAT 2 19 Aug 17:32:06 17:32:19 10° 253° (WSW) 17:32:31 435.950
CUTE-I 19 Aug 17:33:39 17:36:56 17° 64° (ENE) 17:40:14 437.470
ISS 19 Aug 17:45:58 17:49:01 36° 36° (NE) 17:52:03 437.550
LilacSat-2 19 Aug 17:49:16 17:52:02 20° 70° (ENE) 17:54:49 437.200
AO-7 19 Aug 17:50:20 17:55:08 16° 268° (W) 17:59:59 .
MOZHAYETS 4 19 Aug 17:54:30 17:56:55 14° 294° (WNW) 17:59:21
XW-2D 19 Aug 17:55:16 17:58:12 22° 71° (ENE) 18:01:10 145.860 - 145.880
nSIGHT-1 19 Aug 17:56:21 17:59:30 49° 39° (NE) 18:02:38 .
BEESAT 19 Aug 17:56:59 17:59:02 13° 296° (WNW) 18:01:05 436.000
XW-2B 19 Aug 18:05:54 18:09:10 29° 72° (ENE) 18:12:27 145.730 - 145.750
NUDT-PHONESAT 19 Aug 18:07:54 18:10:45 22° 71° (ENE) 18:13:38 437.300
CUBESAT XI-V 19 Aug 18:08:21 18:12:54 49° 286° (WNW) 18:17:25 437.345
KKS-1 19 Aug 18:15:11 18:19:38 86° 99° (E) 18:24:03 437.445
XW-2C 19 Aug 18:24:27 18:28:05 53° 75° (ENE) 18:31:46 145.795 - 145.815
XW-2F 19 Aug 18:37:50 18:41:32 78° 76° (ENE) 18:45:17 145.980 - 146.000
YUBILEINY 19 Aug 18:51:30 18:56:52 17° 294° (WNW) 19:02:17 435.215
SRMSAT 19 Aug 18:53:19 18:54:53 11° 193° (SSW) 18:56:28 437.500
STARS 19 Aug 18:58:09 19:02:31 78° 284° (WNW) 19:06:51 437.465
HO-68 19 Aug 19:02:29 19:09:11 45° 67° (ENE) 19:15:52 435.675
DOVE 4 19 Aug 19:04:41 19:08:33 20° 267° (W) 19:12:25 437.250
KAITUO 1B 19 Aug 19:05:44 19:09:21 54° 260° (W) 19:13:00 145.475/437.950
RS-15 19 Aug 19:10:38 19:20:18 26° 34° (NE) 19:29:34 29.354- 29.394
CUTE-I 19 Aug 19:11:13 19:16:28 57° 259° (W) 19:21:45 437.470
SEEDS 19 Aug 19:15:29 19:18:42 22° 70° (ENE) 19:21:56 437.485
ISS 19 Aug 19:23:02 19:25:16 17° 231° (SW) 19:27:31 437.550
LilacSat-2 19 Aug 19:23:11 19:26:09 22° 264° (W) 19:29:10 437.200
XW-2D 19 Aug 19:29:35 19:32:18 19° 265° (W) 19:35:02 145.860 - 145.880
XW-2A 19 Aug 19:33:15 19:35:59 24° 72° (ENE) 19:38:43 145.665 - 145.685
nSIGHT-1 19 Aug 19:34:07 19:35:33 12° 233° (SW) 19:36:58 .
O/OREOS (USA 219) 19 Aug 19:36:09 19:39:39 21° 61° (ENE) 19:43:08 437.305
XW-2B 19 Aug 19:41:15 19:43:23 15° 267° (W) 19:45:31 145.730 - 145.750
NUDT-PHONESAT 19 Aug 19:41:57 19:44:33 18° 265° (W) 19:47:11 437.300
STRAND 1 19 Aug 19:42:54 19:46:31 19° 94° (E) 19:50:08 437.568
UWE-3 19 Aug 19:51:42 19:55:14 26° 71° (ENE) 19:58:43 435.000/436.395/437.385
CUBEBUG 2 19 Aug 19:55:08 19:59:21 53° 75° (ENE) 20:03:29 437.445
CUTE 1.7 + AOD 2 19 Aug 19:59:15 20:03:26 65° 259° (W) 20:07:40 437.475
AAUSAT CUBESAT 2 19 Aug 20:04:47 20:08:34 35° 72° (ENE) 20:12:22 437.432
Oscar 11 19 Aug 20:08:52 20:11:16 15° 67° (ENE) 20:13:41 .
ZACube-1 19 Aug 20:34:15 20:38:12 43° 74° (ENE) 20:42:08 437.345
SEEDS 19 Aug 20:50:42 20:54:12 26° 264° (W) 20:57:45 437.485
HO-68 19 Aug 20:50:48 20:56:58 31° 263° (W) 21:03:09 435.675
AO-73 19 Aug 20:56:08 21:00:15 73° 76° (ENE) 21:04:23 145.935
XW-2A 19 Aug 21:07:02 21:08:41 13° 266° (W) 21:10:22 145.665 - 145.685
O/OREOS (USA 219) 19 Aug 21:15:02 21:19:04 32° 256° (WSW) 21:23:05 437.305
STRAND 1 19 Aug 21:21:03 21:25:49 41° 289° (WNW) 21:30:35 437.568
RS-15 19 Aug 21:22:49 21:34:53 83° 60° (ENE) 21:46:15 29.354- 29.394
DELFI C3 19 Aug 21:24:04 21:27:13 23° 70° (ENE) 21:30:24 145.870
UWE-3 19 Aug 21:28:27 21:31:38 21° 265° (W) 21:34:48 435.000/436.395/437.385
Max Valier Satellite 19 Aug 21:29:12 21:31:42 18° 70° (ENE) 21:34:12 145.860
CUBEBUG 2 19 Aug 21:35:30 21:36:13 10° 268° (W) 21:36:55 437.445
AAUSAT CUBESAT 2 19 Aug 21:41:38 21:44:06 15° 267° (W) 21:46:34 437.432
Oscar 11 19 Aug 21:42:57 21:47:01 41° 261° (W) 21:51:06 .
FO-29 19 Aug 21:54:30 21:59:10 28° 95° (E) 22:03:36 435.910
PCSat 19 Aug 22:05:47 22:08:28 14° 103° (ESE) 22:11:11 145.827
ZACube-1 19 Aug 22:13:03 22:14:41 12° 268° (W) 22:16:18 437.345
EO-88 19 Aug 22:25:00 22:28:37 80° 77° (ENE) 22:32:16 145.990 - 145.960
UNISAT 6 19 Aug 22:55:33 22:59:47 54° 100° (E) 23:04:04 437.425
DELFI C3 19 Aug 22:58:44 23:01:51 22° 265° (W) 23:05:00 145.870
Max Valier Satellite 19 Aug 23:02:25 23:05:21 23° 264° (W) 23:08:17 145.860
SO-50 19 Aug 23:09:10 23:13:01 28° 112° (ESE) 23:16:53 436.795
PRISM 19 Aug 23:25:33 23:29:42 83° 103° (ESE) 23:33:47 437.425
TIGRISAT 19 Aug 23:31:02 23:35:17 61° 285° (WNW) 23:39:36 435.000
RS-15 19 Aug 23:37:31 23:45:44 23° 260° (W) 23:53:43 29.354- 29.394
FO-29 19 Aug 23:39:31 23:44:14 29° 293° (WNW) 23:48:42 435.910
PCSat 19 Aug 23:45:52 23:51:14 66° 298° (WNW) 23:56:39 145.827
LO-87 19 Aug 23:59:22 00:02:51 48° 260° (W) 00:06:21 145.935 - 145.965
QB50P2 20 Aug 00:03:58 00:06:23 15° 94° (E) 00:08:47 145.880/145.840
EO-79 20 Aug 00:05:22 00:07:32 14° 93° (E) 00:09:40 145.935-145.965
ESTCUBE 1 20 Aug 00:06:57 00:11:26 78° 258° (WSW) 00:15:58 437.505/2401.250
VELOX 1 20 Aug 00:20:07 00:23:52 27° 70° (ENE) 00:27:37 145.980
M-CUBED/EXP-1 PRIME 20 Aug 00:29:06 00:33:15 43° 103° (ESE) 00:37:04 437.505
AIST 2D 20 Aug 00:30:28 00:34:02 86° 101° (E) 00:37:35 435.315
UNISAT 6 20 Aug 00:34:29 00:36:01 12° 294° (WNW) 00:37:33 437.425
DUCHIFAT 1 20 Aug 00:35:50 00:39:18 25° 96° (E) 00:42:45 145.980
SPROUT 20 Aug 00:37:08 00:41:16 52° 74° (ENE) 00:45:25 437.525
SO-50 20 Aug 00:49:35 00:53:24 27° 308° (NW) 00:57:14 436.795
50 SAT 20 Aug 01:00:45 01:03:30 23° 71° (ENE) 01:06:15 437.505
NANOSAT C BR1 20 Aug 01:19:34 01:23:46 80° 283° (WNW) 01:27:57 145.865
POLYITAN 1 20 Aug 01:23:05 01:27:15 64° 285° (WNW) 01:31:25 437.675
QB50P2 20 Aug 01:38:23 01:42:16 37° 287° (WNW) 01:46:09 145.880/145.840
EO-79 20 Aug 01:39:29 01:43:25 40° 287° (WNW) 01:47:21 145.935-145.965
UKube-1 20 Aug 01:42:27 01:46:29 40° 72° (ENE) 01:50:32 .
NO-84 20 Aug 01:47:19 01:50:14 63° 132° (SE) 01:53:04 435.350 FM
VELOX 1 20 Aug 01:56:40 02:00:13 23° 264° (W) 02:03:49 145.980
Gurwin Techsat 1B 20 Aug 01:58:30 02:01:47 16° 93° (E) 02:05:04 435.225
DX 1 20 Aug 02:01:11 02:05:32 76° 256° (WSW) 02:09:57 434.975-435.025
M-CUBED/EXP-1 PRIME 20 Aug 02:04:41 02:07:11 15° 300° (WNW) 02:09:34 437.505
DUCHIFAT 1 20 Aug 02:11:35 02:14:49 22° 290° (WNW) 02:18:03 145.980
BUGSAT 1 20 Aug 02:15:47 02:19:48 77° 284° (WNW) 02:23:49 437.445
SPROUT 20 Aug 02:16:20 02:17:25 11° 268° (W) 02:18:31 437.525
ITUPSAT 1 20 Aug 02:20:12 02:21:27 11° 63° (ENE) 02:22:43 437.325
Oscar 19 20 Aug 02:32:43 02:37:52 59° 101° (ESE) 02:42:58 437.125/150
50 SAT 20 Aug 02:34:05 02:36:07 15° 265° (W) 02:38:08 437.505
YUBILEINY 20 Aug 03:04:31 03:12:24 37° 74° (ENE) 03:20:13 435.215
MOZHAYETS 4 20 Aug 03:14:49 03:18:54 34° 71° (ENE) 03:22:59
UKube-1 20 Aug 03:20:12 03:22:38 15° 266° (W) 03:25:04 .
BEESAT 20 Aug 03:20:29 03:25:03 51° 73° (ENE) 03:29:40 436.000
CUBESAT XI-V 20 Aug 03:35:10 03:36:05 11° 63° (ENE) 03:37:00 437.345
Gurwin Techsat 1B 20 Aug 03:36:50 03:41:59 52° 288° (WNW) 03:47:07 435.225
ITAMSAT 1 20 Aug 03:50:49 03:54:34 20° 95° (E) 03:58:19 435.822/435.867
ITUPSAT 1 20 Aug 03:53:54 03:58:38 71° 258° (WSW) 04:03:23 437.325
AO-7 20 Aug 03:58:42 04:06:07 35° 99° (E) 04:13:27 .
Oscar 19 20 Aug 04:13:39 04:16:38 16° 296° (WNW) 04:19:36 437.125/150
MOZHAYETS 4 20 Aug 04:52:51 04:56:05 19° 266° (W) 04:59:21
